Year,Month,Day,Hour,Minute,Value (Times are PST for temperature in C)
2015,07,19,00,00,21.00
2015,07,19,00,01,21.00
2015,07,19,00,02,21.00
2015,07,19,00,03,21.00
2015,07,19,00,04,21.00
2015,07,19,00,05,21.00
2015,07,19,00,06,21.00
2015,07,19,00,07,21.00
2015,07,19,00,08,20.90
2015,07,19,00,09,20.90
2015,07,19,00,10,20.90
2015,07,19,00,11,20.90
2015,07,19,00,12,20.90
2015,07,19,00,13,20.90
2015,07,19,00,14,20.80
2015,07,19,00,15,20.80
2015,07,19,00,16,20.80
2015,07,19,00,17,20.80
2015,07,19,00,18,20.80
2015,07,19,00,19,20.70
2015,07,19,00,20,20.70
2015,07,19,00,21,20.70
2015,07,19,00,22,20.70
2015,07,19,00,23,20.60
2015,07,19,00,24,20.60
2015,07,19,00,25,20.60
2015,07,19,00,26,20.50
2015,07,19,00,27,20.50
2015,07,19,00,28,20.50
2015,07,19,00,29,20.40
2015,07,19,00,30,20.40
2015,07,19,00,31,20.40
2015,07,19,00,32,20.30
2015,07,19,00,33,20.30
2015,07,19,00,34,20.30
2015,07,19,00,35,20.30
2015,07,19,00,36,20.30
2015,07,19,00,37,20.20
2015,07,19,00,38,20.20
2015,07,19,00,39,20.20
2015,07,19,00,40,20.10
2015,07,19,00,41,20.10
2015,07,19,00,42,20.10
2015,07,19,00,43,20.00
2015,07,19,00,44,20.00
2015,07,19,00,45,20.00
2015,07,19,00,46,19.90
2015,07,19,00,47,19.90
2015,07,19,00,48,19.90
2015,07,19,00,49,19.90
2015,07,19,00,50,19.80
2015,07,19,00,51,19.80
2015,07,19,00,52,19.80
2015,07,19,00,53,19.80
2015,07,19,00,54,19.80
2015,07,19,00,55,19.70
2015,07,19,00,56,19.70
2015,07,19,00,57,19.70
2015,07,19,00,58,19.70
2015,07,19,00,59,19.70
2015,07,19,01,00,19.70
2015,07,19,01,01,19.70
2015,07,19,01,02,19.60
2015,07,19,01,03,19.60
2015,07,19,01,04,19.60
2015,07,19,01,05,19.60
2015,07,19,01,06,19.50
2015,07,19,01,07,19.50
2015,07,19,01,08,19.50
2015,07,19,01,09,19.40
2015,07,19,01,10,19.40
2015,07,19,01,11,19.40
2015,07,19,01,12,19.40
2015,07,19,01,13,19.40
2015,07,19,01,14,19.40
2015,07,19,01,15,19.30
2015,07,19,01,16,19.30
2015,07,19,01,17,19.30
2015,07,19,01,18,19.30
2015,07,19,01,19,19.30
2015,07,19,01,20,19.30
2015,07,19,01,21,19.30
2015,07,19,01,22,19.30
2015,07,19,01,23,19.20
2015,07,19,01,24,19.20
2015,07,19,01,25,19.20
2015,07,19,01,26,19.20
2015,07,19,01,27,19.20
2015,07,19,01,28,19.20
2015,07,19,01,29,19.20
2015,07,19,01,30,19.20
2015,07,19,01,31,19.20
2015,07,19,01,32,19.20
2015,07,19,01,33,19.10
2015,07,19,01,34,19.10
2015,07,19,01,35,19.10
2015,07,19,01,36,19.10
2015,07,19,01,37,19.10
2015,07,19,01,38,19.10
2015,07,19,01,39,19.10
2015,07,19,01,40,19.10
2015,07,19,01,41,19.10
2015,07,19,01,42,19.10
2015,07,19,01,43,19.00
2015,07,19,01,44,19.00
2015,07,19,01,45,19.00
2015,07,19,01,46,19.00
2015,07,19,01,47,19.00
2015,07,19,01,48,18.90
2015,07,19,01,49,18.90
2015,07,19,01,50,18.90
2015,07,19,01,51,18.90
2015,07,19,01,52,18.90
2015,07,19,01,53,18.90
2015,07,19,01,54,18.90
2015,07,19,01,55,18.80
2015,07,19,01,56,18.80
2015,07,19,01,57,18.80
2015,07,19,01,58,18.80
2015,07,19,01,59,18.80
2015,07,19,02,00,18.80
2015,07,19,02,01,18.80
2015,07,19,02,02,18.70
2015,07,19,02,03,18.70
2015,07,19,02,04,18.70
2015,07,19,02,05,18.70
2015,07,19,02,06,18.70
2015,07,19,02,07,18.70
2015,07,19,02,08,18.70
2015,07,19,02,09,18.60
2015,07,19,02,10,18.60
2015,07,19,02,11,18.60
2015,07,19,02,12,18.60
2015,07,19,02,13,18.60
2015,07,19,02,14,18.60
2015,07,19,02,15,18.60
2015,07,19,02,16,18.50
2015,07,19,02,17,18.50
2015,07,19,02,18,18.50
2015,07,19,02,19,18.40
2015,07,19,02,20,18.40
2015,07,19,02,21,18.40
2015,07,19,02,22,18.40
2015,07,19,02,23,18.40
2015,07,19,02,24,18.40
2015,07,19,02,25,18.30
2015,07,19,02,26,18.30
2015,07,19,02,27,18.30
2015,07,19,02,28,18.30
2015,07,19,02,29,18.30
2015,07,19,02,30,18.30
2015,07,19,02,31,18.20
2015,07,19,02,32,18.20
2015,07,19,02,33,18.20
2015,07,19,02,34,18.20
2015,07,19,02,35,18.20
2015,07,19,02,36,18.20
2015,07,19,02,37,18.20
2015,07,19,02,38,18.20
2015,07,19,02,39,18.20
2015,07,19,02,40,18.10
2015,07,19,02,41,18.10
2015,07,19,02,42,18.10
2015,07,19,02,43,18.10
2015,07,19,02,44,18.10
2015,07,19,02,45,18.10
2015,07,19,02,46,18.10
2015,07,19,02,47,18.00
2015,07,19,02,48,18.00
2015,07,19,02,49,18.00
2015,07,19,02,50,18.00
2015,07,19,02,51,18.00
2015,07,19,02,52,17.90
2015,07,19,02,53,17.90
2015,07,19,02,54,17.90
2015,07,19,02,55,17.90
2015,07,19,02,56,17.90
2015,07,19,02,57,17.90
2015,07,19,02,58,17.90
2015,07,19,02,59,17.90
2015,07,19,03,00,17.80
2015,07,19,03,01,17.80
2015,07,19,03,02,17.80
2015,07,19,03,06,17.80
2015,07,19,03,07,17.70
2015,07,19,03,08,17.70
2015,07,19,03,09,17.70
2015,07,19,03,10,17.70
2015,07,19,03,11,17.70
2015,07,19,03,12,17.70
2015,07,19,03,13,17.70
2015,07,19,03,14,17.60
2015,07,19,03,15,17.60
2015,07,19,03,16,17.60
2015,07,19,03,17,17.60
2015,07,19,03,18,17.60
2015,07,19,03,19,17.60
2015,07,19,03,20,17.60
2015,07,19,03,21,17.50
2015,07,19,03,22,17.50
2015,07,19,03,23,17.50
2015,07,19,03,24,17.50
2015,07,19,03,25,17.50
2015,07,19,03,26,17.40
2015,07,19,03,27,17.40
2015,07,19,03,28,17.40
2015,07,19,03,29,17.40
2015,07,19,03,30,17.40
2015,07,19,03,31,17.40
2015,07,19,03,32,17.30
2015,07,19,03,33,17.30
2015,07,19,03,34,17.30
2015,07,19,03,35,17.30
2015,07,19,03,36,17.30
2015,07,19,03,37,17.30
2015,07,19,03,38,17.30
2015,07,19,03,39,17.30
2015,07,19,03,40,17.30
2015,07,19,03,41,17.30
2015,07,19,03,42,17.20
2015,07,19,03,43,17.20
2015,07,19,03,44,17.20
2015,07,19,03,45,17.20
2015,07,19,03,46,17.20
2015,07,19,03,47,17.20
2015,07,19,03,48,17.20
2015,07,19,03,49,17.10
2015,07,19,03,50,17.10
2015,07,19,03,51,17.10
2015,07,19,03,52,17.10
2015,07,19,03,53,17.10
2015,07,19,03,54,17.10
2015,07,19,03,55,17.10
2015,07,19,03,56,17.10
2015,07,19,03,57,17.10
2015,07,19,03,58,17.10
2015,07,19,03,59,17.00
2015,07,19,04,00,17.00
2015,07,19,04,01,17.00
2015,07,19,04,02,17.00
2015,07,19,04,03,17.00
2015,07,19,04,04,17.00
2015,07,19,04,05,17.00
2015,07,19,04,06,17.00
2015,07,19,04,07,17.00
2015,07,19,04,08,17.00
2015,07,19,04,09,17.00
2015,07,19,04,10,16.90
2015,07,19,04,11,16.90
2015,07,19,04,12,16.90
2015,07,19,04,13,16.90
2015,07,19,04,14,16.90
2015,07,19,04,15,16.90
2015,07,19,04,16,16.90
2015,07,19,04,17,16.90
2015,07,19,04,18,16.90
2015,07,19,04,19,16.90
2015,07,19,04,20,16.80
2015,07,19,04,21,16.80
2015,07,19,04,22,16.80
2015,07,19,04,23,16.80
2015,07,19,04,24,16.80
2015,07,19,04,25,16.80
2015,07,19,04,26,16.80
2015,07,19,04,27,16.80
2015,07,19,04,28,16.80
2015,07,19,04,29,16.80
2015,07,19,04,30,16.80
2015,07,19,04,31,16.70
2015,07,19,04,32,16.70
2015,07,19,04,33,16.70
2015,07,19,04,34,16.70
2015,07,19,04,35,16.70
2015,07,19,04,36,16.70
2015,07,19,04,37,16.70
2015,07,19,04,38,16.60
2015,07,19,04,39,16.60
2015,07,19,04,40,16.60
2015,07,19,04,41,16.60
2015,07,19,04,42,16.60
2015,07,19,04,43,16.60
2015,07,19,04,44,16.50
2015,07,19,04,45,16.50
2015,07,19,04,46,16.50
2015,07,19,04,47,16.50
2015,07,19,04,48,16.50
2015,07,19,04,49,16.50
2015,07,19,04,50,16.50
2015,07,19,04,51,16.50
2015,07,19,04,52,16.50
2015,07,19,04,53,16.50
2015,07,19,04,54,16.40
2015,07,19,04,55,16.40
2015,07,19,04,56,16.40
2015,07,19,04,57,16.40
2015,07,19,04,58,16.40
2015,07,19,04,59,16.40
2015,07,19,05,00,16.40
2015,07,19,05,01,16.40
2015,07,19,05,02,16.40
2015,07,19,05,03,16.40
2015,07,19,05,04,16.30
2015,07,19,05,05,16.30
2015,07,19,05,06,16.30
2015,07,19,05,07,16.30
2015,07,19,05,08,16.30
2015,07,19,05,09,16.30
2015,07,19,05,10,16.30
2015,07,19,05,11,16.30
2015,07,19,05,12,16.30
2015,07,19,05,13,16.30
2015,07,19,05,14,16.20
2015,07,19,05,15,16.20
2015,07,19,05,16,16.20
2015,07,19,05,17,16.20
2015,07,19,05,18,16.20
2015,07,19,05,19,16.20
2015,07,19,05,20,16.20
2015,07,19,05,21,16.20
2015,07,19,05,22,16.10
2015,07,19,05,23,16.10
2015,07,19,05,24,16.10
2015,07,19,05,25,16.10
2015,07,19,05,26,16.10
2015,07,19,05,27,16.10
2015,07,19,05,28,16.10
2015,07,19,05,29,16.10
2015,07,19,05,30,16.10
2015,07,19,05,31,16.10
2015,07,19,05,32,16.10
2015,07,19,05,33,16.00
2015,07,19,05,34,16.00
2015,07,19,05,35,16.00
2015,07,19,05,36,16.00
2015,07,19,05,37,16.00
2015,07,19,05,38,16.00
2015,07,19,05,39,16.00
2015,07,19,05,40,16.00
2015,07,19,05,41,15.90
2015,07,19,05,42,15.90
2015,07,19,05,43,15.90
2015,07,19,05,44,15.90
2015,07,19,05,45,15.90
2015,07,19,05,46,15.90
2015,07,19,05,47,15.90
2015,07,19,05,48,15.90
2015,07,19,05,49,15.90
2015,07,19,05,50,15.90
2015,07,19,05,51,15.90
2015,07,19,05,52,15.90
2015,07,19,05,53,15.90
2015,07,19,05,54,15.90
2015,07,19,05,55,15.90
2015,07,19,05,56,15.90
2015,07,19,05,57,15.90
2015,07,19,05,58,15.90
2015,07,19,05,59,15.90
2015,07,19,06,00,15.90
2015,07,19,06,01,15.90
2015,07,19,06,02,15.90
2015,07,19,06,03,15.90
2015,07,19,06,04,15.90
2015,07,19,06,05,15.90
2015,07,19,06,06,15.90
2015,07,19,06,07,15.80
2015,07,19,06,08,15.80
2015,07,19,06,09,15.80
2015,07,19,06,10,15.80
2015,07,19,06,11,15.80
2015,07,19,06,12,15.80
2015,07,19,06,13,15.80
2015,07,19,06,14,15.80
2015,07,19,06,15,15.80
2015,07,19,06,16,15.90
2015,07,19,06,17,15.90
2015,07,19,06,18,15.90
2015,07,19,06,19,15.90
2015,07,19,06,20,15.90
2015,07,19,06,21,15.90
2015,07,19,06,22,15.90
2015,07,19,06,23,15.90
2015,07,19,06,24,15.90
2015,07,19,06,25,15.90
2015,07,19,06,26,16.00
2015,07,19,06,27,16.00
2015,07,19,06,28,16.00
2015,07,19,06,29,16.10
2015,07,19,06,30,16.10
2015,07,19,06,31,16.10
2015,07,19,06,32,16.10
2015,07,19,06,33,16.10
2015,07,19,06,34,16.10
2015,07,19,06,35,16.20
2015,07,19,06,36,16.20
2015,07,19,06,37,16.20
2015,07,19,06,38,16.20
2015,07,19,06,39,16.20
2015,07,19,06,40,16.30
2015,07,19,06,41,16.30
2015,07,19,06,42,16.30
2015,07,19,06,43,16.30
2015,07,19,06,44,16.30
2015,07,19,06,45,16.40
2015,07,19,06,46,16.40
2015,07,19,06,47,16.40
2015,07,19,06,48,16.40
2015,07,19,06,49,16.50
2015,07,19,06,50,16.50
2015,07,19,06,51,16.50
2015,07,19,06,52,16.50
2015,07,19,06,53,16.60
2015,07,19,06,54,16.60
2015,07,19,06,55,16.60
2015,07,19,06,56,16.60
2015,07,19,06,57,16.60
2015,07,19,06,58,16.70
2015,07,19,06,59,16.70
2015,07,19,07,00,16.70
2015,07,19,07,01,16.70
2015,07,19,07,02,16.70
2015,07,19,07,03,16.70
2015,07,19,07,04,16.70
2015,07,19,07,05,16.80
2015,07,19,07,06,16.80
2015,07,19,07,07,16.80
2015,07,19,07,08,16.80
2015,07,19,07,09,16.80
2015,07,19,07,10,16.90
2015,07,19,07,11,16.90
2015,07,19,07,12,17.00
2015,07,19,07,13,17.00
2015,07,19,07,14,17.10
2015,07,19,07,15,17.10
2015,07,19,07,16,17.20
2015,07,19,07,17,17.20
2015,07,19,07,18,17.30
2015,07,19,07,19,17.30
2015,07,19,07,20,17.30
2015,07,19,07,21,17.30
2015,07,19,07,22,17.40
2015,07,19,07,23,17.40
2015,07,19,07,24,17.50
2015,07,19,07,25,17.50
2015,07,19,07,26,17.60
2015,07,19,07,27,17.60
2015,07,19,07,28,17.60
2015,07,19,07,29,17.70
2015,07,19,07,30,17.70
2015,07,19,07,31,17.70
2015,07,19,07,32,17.80
2015,07,19,07,33,17.80
2015,07,19,07,34,17.80
2015,07,19,07,35,17.80
2015,07,19,07,36,17.90
2015,07,19,07,37,17.90
2015,07,19,07,38,17.90
2015,07,19,07,39,18.00
2015,07,19,07,40,18.00
2015,07,19,07,41,18.00
2015,07,19,07,42,18.10
2015,07,19,07,43,18.10
2015,07,19,07,44,18.10
2015,07,19,07,45,18.10
2015,07,19,07,46,18.20
2015,07,19,07,47,18.20
2015,07,19,07,48,18.20
2015,07,19,07,49,18.30
2015,07,19,07,50,18.30
2015,07,19,07,51,18.30
2015,07,19,07,52,18.40
2015,07,19,07,53,18.40
2015,07,19,07,54,18.50
2015,07,19,07,55,18.60
2015,07,19,07,56,18.60
2015,07,19,07,57,18.70
2015,07,19,07,58,18.70
2015,07,19,07,59,18.80
2015,07,19,08,00,18.80
2015,07,19,08,01,18.80
2015,07,19,08,02,18.90
2015,07,19,08,03,18.90
2015,07,19,08,04,19.00
2015,07,19,08,05,19.00
2015,07,19,08,06,19.10
2015,07,19,08,07,19.10
2015,07,19,08,08,19.20
2015,07,19,08,09,19.20
2015,07,19,08,10,19.20
2015,07,19,08,11,19.30
2015,07,19,08,12,19.30
2015,07,19,08,13,19.40
2015,07,19,08,14,19.50
2015,07,19,08,15,19.50
2015,07,19,08,16,19.60
2015,07,19,08,17,19.80
2015,07,19,08,18,19.90
2015,07,19,08,19,20.00
2015,07,19,08,20,20.20
2015,07,19,08,21,20.30
2015,07,19,08,22,20.50
2015,07,19,08,23,20.60
2015,07,19,08,24,20.70
2015,07,19,08,25,20.80
2015,07,19,08,26,21.00
2015,07,19,08,27,21.10
2015,07,19,08,28,21.20
2015,07,19,08,29,21.30
2015,07,19,08,30,21.50
2015,07,19,08,31,21.60
2015,07,19,08,32,21.80
2015,07,19,08,33,21.90
2015,07,19,08,34,22.00
2015,07,19,08,35,22.20
2015,07,19,08,36,22.30
2015,07,19,08,37,22.50
2015,07,19,08,38,22.60
2015,07,19,08,39,22.70
2015,07,19,08,40,22.80
2015,07,19,08,41,23.00
2015,07,19,08,42,23.10
2015,07,19,08,43,23.10
2015,07,19,08,44,23.20
2015,07,19,08,45,23.20
2015,07,19,08,46,23.30
2015,07,19,08,47,23.40
2015,07,19,08,48,23.40
2015,07,19,08,49,23.50
2015,07,19,08,50,23.60
2015,07,19,08,51,23.70
2015,07,19,08,52,23.80
2015,07,19,08,53,23.90
2015,07,19,08,54,24.00
2015,07,19,08,55,24.10
2015,07,19,08,56,24.10
2015,07,19,08,57,24.10
2015,07,19,08,58,24.20
2015,07,19,08,59,24.20
2015,07,19,09,00,24.30
2015,07,19,09,01,24.40
2015,07,19,09,02,24.50
2015,07,19,09,03,24.60
2015,07,19,09,04,24.60
2015,07,19,09,05,24.70
2015,07,19,09,06,24.80
2015,07,19,09,07,24.80
2015,07,19,09,08,24.90
2015,07,19,09,09,24.90
2015,07,19,09,10,25.00
2015,07,19,09,11,25.10
2015,07,19,09,12,25.10
2015,07,19,09,13,25.20
2015,07,19,09,14,25.30
2015,07,19,09,15,25.40
2015,07,19,09,16,25.50
2015,07,19,09,17,25.60
2015,07,19,09,18,25.60
2015,07,19,09,19,25.70
2015,07,19,09,20,25.70
2015,07,19,09,21,25.70
2015,07,19,09,22,25.70
2015,07,19,09,23,25.80
2015,07,19,09,24,25.80
2015,07,19,09,25,25.90
2015,07,19,09,26,25.90
2015,07,19,09,27,25.90
2015,07,19,09,28,26.00
2015,07,19,09,29,26.10
2015,07,19,09,30,26.10
2015,07,19,09,31,26.20
2015,07,19,09,32,26.30
2015,07,19,09,33,26.30
2015,07,19,09,34,26.30
2015,07,19,09,35,26.30
2015,07,19,09,36,26.30
2015,07,19,09,37,26.30
2015,07,19,09,38,26.20
2015,07,19,09,39,26.20
2015,07,19,09,40,26.10
2015,07,19,09,41,26.10
2015,07,19,09,42,26.10
2015,07,19,09,43,26.10
2015,07,19,09,44,26.10
2015,07,19,09,45,26.10
2015,07,19,09,46,26.10
2015,07,19,09,47,26.10
2015,07,19,09,48,26.20
2015,07,19,09,49,26.20
2015,07,19,09,50,26.30
2015,07,19,09,51,26.30
2015,07,19,09,52,26.30
2015,07,19,09,53,26.30
2015,07,19,09,54,26.30
2015,07,19,09,55,26.30
2015,07,19,09,56,26.30
2015,07,19,09,57,26.30
2015,07,19,09,58,26.40
2015,07,19,09,59,26.40
2015,07,19,10,00,26.50
2015,07,19,10,01,26.60
2015,07,19,10,02,26.60
2015,07,19,10,03,26.70
2015,07,19,10,04,26.70
2015,07,19,10,05,26.80
2015,07,19,10,06,26.80
2015,07,19,10,07,26.90
2015,07,19,10,08,26.90
2015,07,19,10,09,26.90
2015,07,19,10,10,26.90
2015,07,19,10,11,26.90
2015,07,19,10,12,27.00
2015,07,19,10,13,26.90
2015,07,19,10,14,26.90
2015,07,19,10,15,26.90
2015,07,19,10,16,27.00
2015,07,19,10,17,27.00
2015,07,19,10,18,27.00
2015,07,19,10,19,27.00
2015,07,19,10,20,27.10
2015,07,19,10,21,27.10
2015,07,19,10,22,27.10
2015,07,19,10,23,27.10
2015,07,19,10,24,27.10
2015,07,19,10,25,27.10
2015,07,19,10,26,27.10
2015,07,19,10,27,27.10
2015,07,19,10,28,27.20
2015,07,19,10,29,27.20
2015,07,19,10,30,27.20
2015,07,19,10,31,27.30
2015,07,19,10,32,27.30
2015,07,19,10,33,27.30
2015,07,19,10,34,27.30
2015,07,19,10,35,27.30
2015,07,19,10,36,27.30
2015,07,19,10,37,27.30
2015,07,19,10,38,27.20
2015,07,19,10,39,27.20
2015,07,19,10,40,27.20
2015,07,19,10,41,27.20
2015,07,19,10,42,27.20
2015,07,19,10,43,27.20
2015,07,19,10,44,27.30
2015,07,19,10,45,27.30
2015,07,19,10,46,27.30
2015,07,19,10,47,27.30
2015,07,19,10,48,27.30
2015,07,19,10,49,27.30
2015,07,19,10,50,27.30
2015,07,19,10,51,27.30
2015,07,19,10,52,27.30
2015,07,19,10,53,27.30
2015,07,19,10,54,27.30
2015,07,19,10,55,27.30
2015,07,19,10,56,27.20
2015,07,19,10,57,27.20
2015,07,19,10,58,27.20
2015,07,19,10,59,27.30
2015,07,19,11,00,27.30
2015,07,19,11,01,27.30
2015,07,19,11,02,27.30
2015,07,19,11,03,27.40
2015,07,19,11,04,27.50
2015,07,19,11,05,27.50
2015,07,19,11,06,27.60
2015,07,19,11,07,27.60
2015,07,19,11,08,27.70
2015,07,19,11,09,27.70
2015,07,19,11,10,27.70
2015,07,19,11,11,27.70
2015,07,19,11,12,27.70
2015,07,19,11,13,27.70
2015,07,19,11,14,27.70
2015,07,19,11,15,27.70
2015,07,19,11,16,27.70
2015,07,19,11,17,27.70
2015,07,19,11,18,27.70
2015,07,19,11,19,27.70
2015,07,19,11,20,27.70
2015,07,19,11,21,27.70
2015,07,19,11,22,27.70
2015,07,19,11,23,27.70
2015,07,19,11,24,27.70
2015,07,19,11,25,27.80
2015,07,19,11,26,27.80
2015,07,19,11,27,27.80
2015,07,19,11,28,27.80
2015,07,19,11,29,27.80
2015,07,19,11,30,27.80
2015,07,19,11,31,27.80
2015,07,19,11,32,27.80
2015,07,19,11,33,27.80
2015,07,19,11,34,27.80
2015,07,19,11,35,27.70
2015,07,19,11,36,27.70
2015,07,19,11,37,27.70
2015,07,19,11,38,27.70
2015,07,19,11,39,27.70
2015,07,19,11,40,27.80
2015,07,19,11,41,27.80
2015,07,19,11,42,27.80
2015,07,19,11,43,27.80
2015,07,19,11,44,27.80
2015,07,19,11,45,27.80
2015,07,19,11,46,27.90
2015,07,19,11,47,27.90
2015,07,19,11,48,27.80
2015,07,19,11,49,27.80
2015,07,19,11,50,27.80
2015,07,19,11,51,27.90
2015,07,19,11,52,27.90
2015,07,19,11,53,28.00
2015,07,19,11,54,28.10
2015,07,19,11,55,28.10
2015,07,19,11,56,28.20
2015,07,19,11,57,28.20
2015,07,19,11,58,28.10
2015,07,19,11,59,28.10
2015,07,19,12,00,28.00
2015,07,19,12,01,27.90
2015,07,19,12,02,27.90
2015,07,19,12,03,27.90
2015,07,19,12,04,27.90
2015,07,19,12,05,28.00
2015,07,19,12,06,28.10
2015,07,19,12,07,28.10
2015,07,19,12,08,28.20
2015,07,19,12,09,28.20
2015,07,19,12,10,28.20
2015,07,19,12,11,28.10
2015,07,19,12,12,28.10
2015,07,19,12,13,28.10
2015,07,19,12,14,28.20
2015,07,19,12,15,28.10
2015,07,19,12,16,28.10
2015,07,19,12,17,28.00
2015,07,19,12,18,27.90
2015,07,19,12,19,27.90
2015,07,19,12,20,27.90
2015,07,19,12,21,27.80
2015,07,19,12,22,27.70
2015,07,19,12,23,27.70
2015,07,19,12,24,27.60
2015,07,19,12,25,27.60
2015,07,19,12,26,27.60
2015,07,19,12,27,27.60
2015,07,19,12,28,27.70
2015,07,19,12,29,27.70
2015,07,19,12,30,27.80
2015,07,19,12,31,27.80
2015,07,19,12,32,27.80
2015,07,19,12,33,27.80
2015,07,19,12,34,27.80
2015,07,19,12,35,27.80
2015,07,19,12,36,27.80
2015,07,19,12,37,27.80
2015,07,19,12,38,27.80
2015,07,19,12,39,27.80
2015,07,19,12,40,27.80
2015,07,19,12,41,27.80
2015,07,19,12,42,27.80
2015,07,19,12,43,27.80
2015,07,19,12,44,27.80
2015,07,19,12,45,27.80
2015,07,19,12,46,27.80
2015,07,19,12,47,27.90
2015,07,19,12,48,27.90
2015,07,19,12,49,27.90
2015,07,19,12,50,27.90
2015,07,19,12,51,28.00
2015,07,19,12,52,28.00
2015,07,19,12,53,28.00
2015,07,19,12,54,28.00
2015,07,19,12,55,28.10
2015,07,19,12,56,28.10
2015,07,19,12,57,28.10
2015,07,19,12,58,28.10
2015,07,19,12,59,28.20
2015,07,19,13,00,28.20
2015,07,19,13,01,28.10
2015,07,19,13,02,28.10
2015,07,19,13,03,28.00
2015,07,19,13,04,28.00
2015,07,19,13,05,28.00
2015,07,19,13,06,28.00
2015,07,19,13,07,28.00
2015,07,19,13,08,28.00
2015,07,19,13,09,28.00
2015,07,19,13,10,28.00
2015,07,19,13,11,28.00
2015,07,19,13,12,27.90
2015,07,19,13,13,27.90
2015,07,19,13,14,27.90
2015,07,19,13,15,27.90
2015,07,19,13,16,27.90
2015,07,19,13,17,27.90
2015,07,19,13,18,27.90
2015,07,19,13,19,27.90
2015,07,19,13,20,27.90
2015,07,19,13,21,27.90
2015,07,19,13,22,27.80
2015,07,19,13,23,27.80
2015,07,19,13,24,27.80
2015,07,19,13,25,27.80
2015,07,19,13,26,27.90
2015,07,19,13,27,27.90
2015,07,19,13,28,27.90
2015,07,19,13,29,27.90
2015,07,19,13,30,27.90
2015,07,19,13,31,27.90
2015,07,19,13,32,27.90
2015,07,19,13,33,27.90
2015,07,19,13,34,27.90
2015,07,19,13,35,28.00
2015,07,19,13,36,28.00
2015,07,19,13,37,28.10
2015,07,19,13,38,28.10
2015,07,19,13,39,28.10
2015,07,19,13,40,28.10
2015,07,19,13,41,28.10
2015,07,19,13,42,28.00
2015,07,19,13,43,28.00
2015,07,19,13,44,28.00
2015,07,19,13,45,27.90
2015,07,19,13,46,27.90
2015,07,19,13,47,27.90
2015,07,19,13,48,27.90
2015,07,19,13,49,27.90
2015,07,19,13,50,27.80
2015,07,19,13,51,27.80
2015,07,19,13,52,27.80
2015,07,19,13,53,27.80
2015,07,19,13,54,27.80
2015,07,19,13,55,27.90
2015,07,19,13,56,27.90
2015,07,19,13,57,28.00
2015,07,19,13,58,28.10
2015,07,19,13,59,28.10
2015,07,19,14,00,28.20
2015,07,19,14,01,28.20
2015,07,19,14,02,28.20
2015,07,19,14,03,28.20
2015,07,19,14,04,28.20
2015,07,19,14,05,28.20
2015,07,19,14,06,28.20
2015,07,19,14,07,28.20
2015,07,19,14,08,28.20
2015,07,19,14,09,28.20
2015,07,19,14,10,28.20
2015,07,19,14,11,28.20
2015,07,19,14,12,28.20
2015,07,19,14,13,28.30
2015,07,19,14,14,28.30
2015,07,19,14,15,28.40
2015,07,19,14,16,28.40
2015,07,19,14,17,28.50
2015,07,19,14,18,28.50
2015,07,19,14,19,28.60
2015,07,19,14,20,28.60
2015,07,19,14,21,28.60
2015,07,19,14,22,28.60
2015,07,19,14,23,28.70
2015,07,19,14,24,28.70
2015,07,19,14,25,28.80
2015,07,19,14,26,28.80
2015,07,19,14,27,28.80
2015,07,19,14,28,28.80
2015,07,19,14,29,28.80
2015,07,19,14,30,28.90
2015,07,19,14,31,28.90
2015,07,19,14,32,29.00
2015,07,19,14,33,29.00
2015,07,19,14,34,29.10
2015,07,19,14,35,29.10
2015,07,19,14,36,29.10
2015,07,19,14,37,29.20
2015,07,19,14,38,29.20
2015,07,19,14,39,29.20
2015,07,19,14,40,29.20
2015,07,19,14,41,29.20
2015,07,19,14,42,29.10
2015,07,19,14,43,29.10
2015,07,19,14,44,29.10
2015,07,19,14,45,29.10
2015,07,19,14,46,29.10
2015,07,19,14,47,29.10
2015,07,19,14,48,29.10
2015,07,19,14,49,29.20
2015,07,19,14,50,29.20
2015,07,19,14,51,29.20
2015,07,19,14,52,29.20
2015,07,19,14,53,29.20
2015,07,19,14,54,29.20
2015,07,19,14,55,29.20
2015,07,19,14,56,29.20
2015,07,19,14,57,29.30
2015,07,19,14,58,29.40
2015,07,19,14,59,29.40
2015,07,19,15,00,29.40
2015,07,19,15,01,29.40
2015,07,19,15,02,29.50
2015,07,19,15,03,29.50
2015,07,19,15,04,29.60
2015,07,19,15,05,29.60
2015,07,19,15,06,29.70
2015,07,19,15,07,29.70
2015,07,19,15,08,29.70
2015,07,19,15,09,29.80
2015,07,19,15,10,29.90
2015,07,19,15,11,29.90
2015,07,19,15,12,30.00
2015,07,19,15,13,30.10
2015,07,19,15,14,30.20
2015,07,19,15,15,30.20
2015,07,19,15,16,30.20
2015,07,19,15,17,30.10
2015,07,19,15,18,30.10
2015,07,19,15,19,30.10
2015,07,19,15,20,30.10
2015,07,19,15,21,30.10
2015,07,19,15,22,30.10
2015,07,19,15,23,30.10
2015,07,19,15,24,30.10
2015,07,19,15,25,30.10
2015,07,19,15,26,30.10
2015,07,19,15,27,30.10
2015,07,19,15,28,30.10
2015,07,19,15,29,30.10
2015,07,19,15,30,30.10
2015,07,19,15,31,30.10
2015,07,19,15,32,30.10
2015,07,19,15,33,30.00
2015,07,19,15,34,30.00
2015,07,19,15,35,30.00
2015,07,19,15,36,30.10
2015,07,19,15,37,30.20
2015,07,19,15,38,30.30
2015,07,19,15,39,30.30
2015,07,19,15,40,30.40
2015,07,19,15,41,30.50
2015,07,19,15,42,30.60
2015,07,19,15,43,30.60
2015,07,19,15,44,30.60
2015,07,19,15,45,30.70
2015,07,19,15,46,30.70
2015,07,19,15,47,30.70
2015,07,19,15,48,30.80
2015,07,19,15,49,30.80
2015,07,19,15,50,30.80
2015,07,19,15,51,30.80
2015,07,19,15,52,30.70
2015,07,19,15,53,30.60
2015,07,19,15,54,30.60
2015,07,19,15,55,30.60
2015,07,19,15,56,30.50
2015,07,19,15,57,30.40
2015,07,19,15,58,30.40
2015,07,19,15,59,30.40
2015,07,19,16,00,30.50
2015,07,19,16,01,30.50
2015,07,19,16,02,30.50
2015,07,19,16,03,30.50
2015,07,19,16,04,30.60
2015,07,19,16,05,30.60
2015,07,19,16,06,30.60
2015,07,19,16,07,30.60
2015,07,19,16,08,30.50
2015,07,19,16,09,30.40
2015,07,19,16,10,30.40
2015,07,19,16,11,30.50
2015,07,19,16,12,30.60
2015,07,19,16,13,30.60
2015,07,19,16,14,30.50
2015,07,19,16,15,30.40
2015,07,19,16,16,30.40
2015,07,19,16,17,30.40
2015,07,19,16,18,30.40
2015,07,19,16,19,30.30
2015,07,19,16,20,30.30
2015,07,19,16,21,30.30
2015,07,19,16,22,30.30
2015,07,19,16,23,30.30
2015,07,19,16,24,30.40
2015,07,19,16,25,30.40
2015,07,19,16,26,30.40
2015,07,19,16,27,30.50
2015,07,19,16,28,30.50
2015,07,19,16,29,30.50
2015,07,19,16,30,30.50
2015,07,19,16,31,30.50
2015,07,19,16,32,30.60
2015,07,19,16,33,30.50
2015,07,19,16,34,30.50
2015,07,19,16,35,30.50
2015,07,19,16,36,30.50
2015,07,19,16,37,30.50
2015,07,19,16,38,30.60
2015,07,19,16,39,30.60
2015,07,19,16,40,30.60
2015,07,19,16,41,30.60
2015,07,19,16,42,30.70
2015,07,19,16,43,30.70
2015,07,19,16,44,30.60
2015,07,19,16,45,30.60
2015,07,19,16,46,30.50
2015,07,19,16,47,30.40
2015,07,19,16,48,30.30
2015,07,19,16,49,30.30
2015,07,19,16,50,30.30
2015,07,19,16,51,30.30
2015,07,19,16,52,30.30
2015,07,19,16,53,30.30
2015,07,19,16,54,30.40
2015,07,19,16,55,30.40
2015,07,19,16,56,30.50
2015,07,19,16,57,30.60
2015,07,19,16,58,30.60
2015,07,19,16,59,30.60
2015,07,19,17,00,30.60
2015,07,19,17,01,30.60
2015,07,19,17,02,30.60
2015,07,19,17,03,30.60
2015,07,19,17,04,30.60
2015,07,19,17,05,30.60
2015,07,19,17,06,30.60
2015,07,19,17,07,30.60
2015,07,19,17,08,30.60
2015,07,19,17,09,30.60
2015,07,19,17,10,30.60
2015,07,19,17,11,30.60
2015,07,19,17,12,30.60
2015,07,19,17,13,30.60
2015,07,19,17,14,30.60
2015,07,19,17,15,30.60
2015,07,19,17,16,30.50
2015,07,19,17,17,30.50
2015,07,19,17,18,30.50
2015,07,19,17,19,30.50
2015,07,19,17,20,30.60
2015,07,19,17,21,30.50
2015,07,19,17,22,30.50